| time (UTC) | temp F | wind direction | speed MPH | gust MPH | rain 1hr in | rain 24hr in | rain mn in | humidity % | barometer mb |
| 20260507181555 | 63 | 40 | 2.0 | 5.0 | 0.00 | 0.16 | 0.02 | 36 | 1007.9 |
| 20260507180055 | 63 | 254 | 2.0 | 7.0 | 0.00 | 0.16 | 0.02 | 36 | 1007.9 |
| 20260507174602 | 63 | 92 | 2.0 | 6.0 | 0.00 | 0.16 | 0.02 | 33 | 1007.9 |
| 20260507173129 | 63 | 294 | 2.0 | 6.0 | 0.00 | 0.16 | 0.02 | 36 | 1007.9 |
| 20260507171559 | 63 | 221 | 3.0 | 7.0 | 0.00 | 0.16 | 0.02 | 33 | 1007.9 |
| 20260507170054 | 62 | 253 | 3.0 | 6.0 | 0.00 | 0.16 | 0.02 | 39 | 1008.1 |
| 20260507164557 | 62 | 19 | 2.0 | 5.0 | 0.00 | 0.16 | 0.02 | 40 | 1008.4 |
| 20260507163055 | 61 | 269 | 2.0 | 8.0 | 0.00 | 0.16 | 0.02 | 43 | 1008.6 |
| 20260507161602 | 61 | 244 | 2.0 | 7.0 | 0.00 | 0.16 | 0.02 | 48 | 1008.7 |
| 20260507154556 | 61 | 240 | 2.0 | 6.0 | 0.00 | 0.16 | 0.02 | 49 | 1008.7 |
| 20260507153059 | 60 | 275 | 2.0 | 8.0 | 0.00 | 0.16 | 0.02 | 49 | 1008.8 |
| 20260507151558 | 59 | 0 | 1.0 | 4.0 | 0.00 | 0.16 | 0.02 | 60 | 1009.1 |
| 20260507150054 | 60 | 229 | 1.0 | 4.0 | 0.00 | 0.16 | 0.02 | 61 | 1009.2 |
| 20260507144612 | 57 | 0 | 0.0 | 4.0 | 0.00 | 0.16 | 0.02 | 67 | 1009.3 |
| 20260507143100 | 58 | 265 | 1.0 | 7.0 | 0.00 | 0.16 | 0.02 | 68 | 1009.4 |
| 20260507141559 | 58 | 342 | 1.0 | 5.0 | 0.00 | 0.16 | 0.02 | 66 | 1009.4 |
| 20260507140053 | 57 | 282 | 1.0 | 4.0 | 0.00 | 0.16 | 0.02 | 69 | 1009.3 |
| 20260507134555 | 56 | 241 | 0.0 | 5.0 | 0.00 | 0.16 | 0.02 | 71 | 1009.0 |
| 20260507133139 | 56 | 165 | 1.0 | 4.0 | 0.00 | 0.16 | 0.02 | 71 | 1009.1 |
| 20260507131555 | 56 | 252 | 1.0 | 9.0 | 0.00 | 0.16 | 0.02 | 73 | 1009.2 |
| 20260507124555 | 54 | 56 | 1.0 | 4.0 | 0.00 | 0.16 | 0.02 | 75 | 1009.5 |
| 20260507123052 | 52 | 238 | 1.0 | 3.0 | 0.00 | 0.16 | 0.02 | 82 | 1009.5 |
| 20260507121552 | 51 | 0 | 1.0 | 4.0 | 0.00 | 0.16 | 0.02 | 85 | 1009.7 |
| 20260507120052 | 50 | 0 | 1.0 | 3.0 | 0.00 | 0.16 | 0.02 | 86 | 1009.8 |
| 20260507114600 | 49 | 189 | 0.0 | 2.0 | 0.00 | 0.16 | 0.02 | 90 | 1009.7 |
| 20260507113052 | 48 | 0 | 0.0 | 1.0 | 0.00 | 0.16 | 0.02 | 91 | 1009.5 |
| 20260507111553 | 48 | 0 | 0.0 | 1.0 | 0.00 | 0.16 | 0.02 | 93 | 1009.5 |
| 20260507110057 | 47 | 142 | 0.0 | 1.0 | 0.00 | 0.16 | 0.02 | 94 | 1009.3 |
| 20260507104554 | 47 | 0 | 0.0 | 1.0 | 0.00 | 0.16 | 0.02 | 94 | 1009.4 |
| 20260507103054 | 47 | 0 | 0.0 | 1.0 | 0.00 | 0.16 | 0.02 | 95 | 1009.1 |
| 20260507101555 | 47 | 0 | 0.0 | 2.0 | 0.00 | 0.16 | 0.02 | 94 | 1008.8 |
| 20260507100054 | 47 | 0 | 0.0 | 1.0 | 0.01 | 0.16 | 0.02 | 94 | 1008.5 |
| 20260507094559 | 47 | 0 | 0.0 | 2.0 | 0.01 | 0.16 | 0.02 | 94 | 1008.5 |
| 20260507093050 | 47 | 0 | 0.0 | 1.0 | 0.01 | 0.16 | 0.02 | 94 | 1008.9 |
| 20260507091552 | 47 | 211 | 0.0 | 2.0 | 0.01 | 0.16 | 0.02 | 93 | 1009.1 |
| 20260507090057 | 47 | 211 | 0.0 | 1.0 | 0.00 | 0.15 | 0.01 | 93 | 1009.2 |
| 20260507084557 | 48 | 0 | 0.0 | 0.0 | 0.00 | 0.15 | 0.01 | 92 | 1009.2 |
| 20260507083056 | 48 | 0 | 0.0 | 0.0 | 0.01 | 0.15 | 0.01 | 93 | 1009.1 |
| 20260507081554 | 48 | 0 | 0.0 | 0.0 | 0.01 | 0.15 | 0.01 | 93 | 1008.8 |
| 20260507080101 | 48 | 211 | 0.0 | 1.0 | 0.01 | 0.15 | 0.01 | 92 | 1008.8 |
| 20260507074551 | 49 | 0 | 0.0 | 2.0 | 0.01 | 0.15 | 0.01 | 92 | 1008.9 |
| 20260507073103 | 49 | 0 | 0.0 | 2.0 | 0.00 | 0.14 | 0.00 | 92 | 1008.8 |
| 20260507071553 | 49 | 0 | 0.0 | 0.0 | 0.00 | 0.14 | 0.00 | 92 | 1008.6 |
| 20260507070211 | 50 | 0 | 0.0 | 2.0 | 0.00 | 0.14 | 0.00 | 93 | 1008.1 |
| 20260507064555 | 50 | 0 | 0.0 | 1.0 | 0.00 | 0.14 | 0.00 | 95 | 1007.8 |
| 20260507063049 | 51 | 0 | 0.0 | 0.0 | 0.00 | 0.14 | 0.00 | 95 | 1007.9 |
| 20260507061552 | 51 | 0 | 0.0 | 0.0 | 0.00 | 0.14 | 0.00 | 95 | 1008.2 |
| 20260507060056 | 51 | 0 | 0.0 | 1.0 | 0.00 | 0.14 | 0.00 | 95 | 1008.1 |
| 20260507054551 | 52 | 0 | 0.0 | 2.0 | 0.00 | 0.14 | 0.00 | 95 | 1008.2 |
| 20260507053058 | 52 | 0 | 0.0 | 1.0 | 0.00 | 0.14 | 0.00 | 95 | 1008.7 |
| 20260507051555 | 53 | 0 | 0.0 | 1.0 | 0.00 | 0.14 | 0.00 | 96 | 1008.5 |
| 20260507050050 | 54 | 0 | 0.0 | 3.0 | 0.00 | 0.14 | 0.00 | 96 | 1008.4 |
| 20260507044601 | 54 | 0 | 0.0 | 3.0 | 0.00 | 0.14 | 0.00 | 97 | 1008.3 |
| 20260507043051 | 55 | 0 | 0.0 | 2.0 | 0.00 | 0.14 | 0.00 | 97 | 1008.2 |
| 20260507041552 | 55 | 51 | 0.0 | 2.0 | 0.00 | 0.14 | 0.00 | 96 | 1008.3 |
| 20260507040058 | 56 | 0 | 1.0 | 2.0 | 0.01 | 0.14 | 0.00 | 97 | 1008.1 |
| 20260507034556 | 56 | 0 | 0.0 | 3.0 | 0.01 | 0.14 | 0.14 | 97 | 1008.1 |
| 20260507033102 | 57 | 0 | 0.0 | 3.0 | 0.01 | 0.14 | 0.14 | 97 | 1007.8 |
| 20260507031600 | 57 | 0 | 0.0 | 2.0 | 0.01 | 0.14 | 0.14 | 97 | 1007.5 |
| 20260507030107 | 58 | 0 | 0.0 | 3.0 | 0.00 | 0.13 | 0.13 | 97 | 1007.4 |
| 20260507024608 | 58 | 266 | 0.0 | 1.0 | 0.00 | 0.13 | 0.13 | 97 | 1007.1 |
| 20260507023053 | 58 | 266 | 0.0 | 5.0 | 0.00 | 0.13 | 0.13 | 97 | 1007.2 |
| 20260507021557 | 58 | 0 | 0.0 | 5.0 | 0.00 | 0.13 | 0.13 | 97 | 1007.1 |
| 20260507014605 | 58 | 0 | 1.0 | 4.0 | 0.00 | 0.13 | 0.13 | 97 | 1007.0 |
| 20260507013102 | 58 | 15 | 0.0 | 3.0 | 0.00 | 0.13 | 0.13 | 97 | 1007.0 |
| 20260507011557 | 58 | 50 | 0.0 | 4.0 | 0.00 | 0.13 | 0.13 | 97 | 1007.2 |
| 20260507010059 | 58 | 302 | 1.0 | 6.0 | 0.00 | 0.13 | 0.13 | 97 | 1007.2 |
| 20260507004552 | 58 | 348 | 1.0 | 7.0 | 0.00 | 0.13 | 0.13 | 97 | 1007.1 |
| 20260507003104 | 58 | 5 | 1.0 | 8.0 | 0.00 | 0.13 | 0.13 | 97 | 1007.2 |
| 20260507001602 | 58 | 49 | 1.0 | 4.0 | 0.01 | 0.13 | 0.13 | 97 | 1007.0 |
| 20260507000053 | 58 | 40 | 2.0 | 6.0 | 0.02 | 0.13 | 0.13 | 97 | 1007.1 |
| 20260506234604 | 58 | 0 | 2.0 | 7.0 | 0.05 | 0.13 | 0.13 | 97 | 1007.1 |
| 20260506233058 | 58 | 11 | 1.0 | 7.0 | 0.05 | 0.13 | 0.13 | 96 | 1007.0 |
| 20260506231557 | 58 | 24 | 1.0 | 5.0 | 0.04 | 0.12 | 0.12 | 96 | 1007.0 |
| 20260506230059 | 58 | 16 | 2.0 | 9.0 | 0.04 | 0.11 | 0.11 | 96 | 1007.0 |
| 20260506224559 | 58 | 12 | 1.0 | 6.0 | 0.01 | 0.08 | 0.08 | 96 | 1007.2 |
| 20260506223051 | 58 | 69 | 2.0 | 4.0 | 0.01 | 0.08 | 0.08 | 96 | 1007.2 |
| 20260506221553 | 59 | 49 | 1.0 | 5.0 | 0.01 | 0.08 | 0.08 | 95 | 1007.2 |
| 20260506220054 | 59 | 336 | 1.0 | 9.0 | 0.00 | 0.07 | 0.07 | 95 | 1007.3 |
| 20260506214551 | 59 | 19 | 1.0 | 8.0 | 0.01 | 0.07 | 0.07 | 95 | 1007.5 |
| 20260506213051 | 59 | 0 | 1.0 | 9.0 | 0.01 | 0.07 | 0.07 | 95 | 1007.6 |
| 20260506211554 | 59 | 323 | 2.0 | 10.0 | 0.02 | 0.07 | 0.07 | 94 | 1007.7 |
| 20260506210055 | 59 | 22 | 2.0 | 10.0 | 0.03 | 0.07 | 0.07 | 94 | 1007.9 |
| 20260506204553 | 59 | 89 | 2.0 | 7.0 | 0.02 | 0.06 | 0.06 | 94 | 1008.0 |
| 20260506203052 | 59 | 21 | 1.0 | 10.0 | 0.02 | 0.06 | 0.06 | 94 | 1008.0 |
| 20260506201556 | 59 | 51 | 2.0 | 9.0 | 0.03 | 0.05 | 0.05 | 93 | 1008.0 |
| 20260506200051 | 60 | 41 | 4.0 | 11.0 | 0.03 | 0.04 | 0.04 | 91 | 1007.9 |
| 20260506194552 | 61 | 328 | 2.0 | 6.0 | 0.04 | 0.04 | 0.04 | 92 | 1007.9 |
| 20260506193054 | 61 | 29 | 2.0 | 9.0 | 0.04 | 0.04 | 0.04 | 90 | 1008.2 |
| 20260506191552 | 62 | 0 | 1.0 | 3.0 | 0.02 | 0.02 | 0.02 | 89 | 1008.1 |
| 20260506190058 | 63 | 70 | 1.0 | 6.0 | 0.01 | 0.01 | 0.01 | 86 | 1008.0 |
| 20260506184554 | 64 | 0 | 1.0 | 4.0 | 0.00 | 0.00 | 0.00 | 82 | 1008.3 |
| 20260506183100 | 66 | 306 | 2.0 | 8.0 | 0.00 | 0.00 | 0.00 | 76 | 1008.5 |